Time,TemperatureF,DewpointF,PressureIn,WindDirection,WindDirectionDegrees,WindSpeedMPH,WindSpeedGustMPH,Humidity,HourlyPrecipIn,Conditions,Clouds,dailyrainin,SoftwareType,DateUTC
2013-07-14 00:02:00,68.3,64.3,30.01,NNE,26,9.0,10.0,87,0.00,,,0.00,Wunderground v.1.15,2013-07-14 05:02:00,
2013-07-14 00:08:00,68.3,63.9,30.01,NE,45,12.0,13.0,86,0.00,,,0.00,Wunderground v.1.15,2013-07-14 05:08:00,
2013-07-14 00:13:00,68.3,63.9,30.01,NE,36,10.0,11.0,86,0.00,,,0.00,Wunderground v.1.15,2013-07-14 05:13:00,
2013-07-14 00:19:00,68.3,63.9,30.01,NE,34,11.0,13.0,86,0.00,,,0.00,Wunderground v.1.15,2013-07-14 05:19:00,
2013-07-14 00:25:00,68.2,64.2,30.01,NE,45,12.0,12.0,87,0.00,,,0.00,Wunderground v.1.15,2013-07-14 05:25:00,
2013-07-14 00:31:00,68.1,64.1,30.00,NE,42,12.0,12.0,87,0.00,,,0.00,Wunderground v.1.15,2013-07-14 05:31:00,
2013-07-14 00:36:00,68.1,64.1,30.00,NE,35,11.0,12.0,87,0.00,,,0.00,Wunderground v.1.15,2013-07-14 05:36:00,
2013-07-14 00:42:00,67.9,63.9,30.00,NE,42,12.0,14.0,87,0.00,,,0.00,Wunderground v.1.15,2013-07-14 05:42:00,
2013-07-14 00:48:00,68.0,64.0,30.00,NE,39,11.0,14.0,87,0.00,,,0.00,Wunderground v.1.15,2013-07-14 05:48:00,
2013-07-14 00:54:00,68.0,64.0,30.00,NE,51,11.0,13.0,87,0.00,,,0.00,Wunderground v.1.15,2013-07-14 05:54:00,
2013-07-14 00:59:00,68.1,64.1,30.00,NE,53,10.0,13.0,87,0.00,,,0.00,Wunderground v.1.15,2013-07-14 05:59:00,
2013-07-14 01:05:00,68.0,64.3,30.00,NE,48,11.0,12.0,88,0.00,,,0.00,Wunderground v.1.15,2013-07-14 06:05:00,
2013-07-14 01:11:00,67.9,64.2,30.00,NE,36,10.0,10.0,88,0.00,,,0.00,Wunderground v.1.15,2013-07-14 06:11:00,
2013-07-14 01:16:00,67.8,64.1,30.00,NE,49,11.0,11.0,88,0.00,,,0.00,Wunderground v.1.15,2013-07-14 06:16:00,
2013-07-14 01:22:00,67.6,63.9,30.00,NE,53,12.0,14.0,88,0.00,,,0.00,Wunderground v.1.15,2013-07-14 06:22:00,
2013-07-14 01:28:00,67.5,64.1,30.00,NE,50,11.0,14.0,89,0.00,,,0.00,Wunderground v.1.15,2013-07-14 06:28:00,
2013-07-14 01:34:00,67.3,63.9,30.00,NE,51,11.0,12.0,89,0.00,,,0.00,Wunderground v.1.15,2013-07-14 06:34:00,
2013-07-14 01:39:00,67.2,64.2,30.00,NE,53,11.0,12.0,90,0.00,,,0.00,Wunderground v.1.15,2013-07-14 06:39:00,
2013-07-14 01:45:00,67.1,64.1,30.01,NE,49,11.0,11.0,90,0.00,,,0.00,Wunderground v.1.15,2013-07-14 06:45:00,
2013-07-14 01:51:00,67.0,64.0,30.01,West,279,12.0,12.0,90,0.00,,,0.00,Wunderground v.1.15,2013-07-14 06:51:00,
2013-07-14 01:57:00,66.9,64.2,30.00,NE,50,11.0,12.0,91,0.00,,,0.00,Wunderground v.1.15,2013-07-14 06:57:00,
2013-07-14 02:02:00,66.8,63.8,30.00,ENE,57,11.0,12.0,90,0.00,,,0.00,Wunderground v.1.15,2013-07-14 07:02:00,
2013-07-14 02:07:00,66.7,64.0,30.00,NE,55,11.0,13.0,91,0.00,,,0.00,Wunderground v.1.15,2013-07-14 07:07:00,
2013-07-14 02:12:00,66.6,63.9,30.00,NE,53,11.0,13.0,91,0.00,,,0.00,Wunderground v.1.15,2013-07-14 07:12:00,
2013-07-14 02:17:00,66.5,63.8,30.00,NE,56,12.0,15.0,91,0.00,,,0.00,Wunderground v.1.15,2013-07-14 07:17:00,
2013-07-14 02:22:00,66.4,63.7,30.00,ENE,57,10.0,16.0,91,0.00,,,0.00,Wunderground v.1.15,2013-07-14 07:22:00,
2013-07-14 02:27:00,66.3,63.9,30.00,ENE,71,9.0,16.0,92,0.00,,,0.00,Wunderground v.1.15,2013-07-14 07:27:00,
2013-07-14 02:32:00,66.3,63.9,30.00,ENE,67,12.0,13.0,92,0.00,,,0.00,Wunderground v.1.15,2013-07-14 07:32:00,
2013-07-14 02:37:00,66.2,63.8,30.00,ENE,59,12.0,13.0,92,0.00,,,0.00,Wunderground v.1.15,2013-07-14 07:37:00,
2013-07-14 02:42:00,66.2,63.8,30.00,ENE,59,10.0,12.0,92,0.00,,,0.00,Wunderground v.1.15,2013-07-14 07:42:00,
2013-07-14 02:47:00,66.1,63.7,30.00,West,279,12.0,12.0,92,0.00,,,0.00,Wunderground v.1.15,2013-07-14 07:47:00,
2013-07-14 02:52:00,66.1,63.7,30.00,ENE,61,13.0,14.0,92,0.00,,,0.00,Wunderground v.1.15,2013-07-14 07:52:00,
2013-07-14 02:57:00,66.1,63.7,30.00,ENE,59,13.0,14.0,92,0.00,,,0.00,Wunderground v.1.15,2013-07-14 07:57:00,
2013-07-14 03:02:00,66.0,63.9,30.00,NE,56,12.0,13.0,93,0.00,,,0.00,Wunderground v.1.15,2013-07-14 08:02:00,
2013-07-14 03:07:00,66.0,63.9,30.00,NE,56,11.0,13.0,93,0.00,,,0.00,Wunderground v.1.15,2013-07-14 08:07:00,
2013-07-14 03:12:00,66.0,63.9,30.00,NE,51,12.0,12.0,93,0.00,,,0.00,Wunderground v.1.15,2013-07-14 08:12:00,
2013-07-14 03:17:00,66.0,63.9,30.00,NE,49,13.0,13.0,93,0.00,,,0.00,Wunderground v.1.15,2013-07-14 08:17:00,
2013-07-14 03:22:00,66.0,63.9,30.01,NE,48,15.0,16.0,93,0.00,,,0.00,Wunderground v.1.15,2013-07-14 08:22:00,
2013-07-14 03:27:00,66.1,64.3,30.01,NE,46,13.0,16.0,94,0.00,,,0.00,Wunderground v.1.15,2013-07-14 08:27:00,
2013-07-14 03:32:00,66.2,64.4,30.01,NE,51,15.0,16.0,94,0.00,,,0.00,Wunderground v.1.15,2013-07-14 08:32:00,
2013-07-14 03:37:00,66.3,64.5,30.01,NE,56,13.0,16.0,94,0.00,,,0.00,Wunderground v.1.15,2013-07-14 08:37:00,
2013-07-14 03:42:00,66.5,64.7,30.01,NE,52,12.0,15.0,94,0.00,,,0.00,Wunderground v.1.15,2013-07-14 08:42:00,
2013-07-14 03:47:00,66.6,64.8,30.00,NE,52,13.0,15.0,94,0.00,,,0.00,Wunderground v.1.15,2013-07-14 08:47:00,
2013-07-14 03:52:00,66.6,64.8,30.00,NE,49,13.0,13.0,94,0.00,,,0.00,Wunderground v.1.15,2013-07-14 08:52:00,
2013-07-14 03:57:00,66.6,64.8,30.01,NE,52,13.0,14.0,94,0.00,,,0.00,Wunderground v.1.15,2013-07-14 08:57:00,
2013-07-14 04:02:00,66.8,65.0,30.01,NE,53,13.0,15.0,94,0.00,,,0.00,Wunderground v.1.15,2013-07-14 09:02:00,
2013-07-14 04:07:00,66.9,65.1,30.01,West,279,12.0,15.0,94,0.00,,,0.00,Wunderground v.1.15,2013-07-14 09:07:00,
2013-07-14 04:12:00,67.0,65.2,30.01,ENE,59,13.0,14.0,94,0.00,,,0.00,Wunderground v.1.15,2013-07-14 09:12:00,
2013-07-14 04:17:00,67.0,65.2,30.01,ENE,57,13.0,16.0,94,0.00,,,0.00,Wunderground v.1.15,2013-07-14 09:17:00,
2013-07-14 04:22:00,67.0,65.2,30.01,ENE,60,13.0,15.0,94,0.00,,,0.00,Wunderground v.1.15,2013-07-14 09:22:00,
2013-07-14 04:27:00,67.0,65.2,30.02,ENE,59,14.0,15.0,94,0.00,,,0.00,Wunderground v.1.15,2013-07-14 09:27:00,
2013-07-14 04:32:00,67.0,65.2,30.02,ENE,59,11.0,15.0,94,0.00,,,0.00,Wunderground v.1.15,2013-07-14 09:32:00,
2013-07-14 04:37:00,67.0,65.2,30.02,ENE,61,13.0,16.0,94,0.00,,,0.00,Wunderground v.1.15,2013-07-14 09:37:00,
2013-07-14 04:42:00,67.1,65.3,30.02,ENE,58,14.0,16.0,94,0.00,,,0.00,Wunderground v.1.15,2013-07-14 09:42:00,
2013-07-14 04:47:00,67.1,65.3,30.02,ENE,57,14.0,16.0,94,0.00,,,0.00,Wunderground v.1.15,2013-07-14 09:47:00,
2013-07-14 04:52:00,67.2,65.4,30.02,ENE,64,13.0,15.0,94,0.00,,,0.00,Wunderground v.1.15,2013-07-14 09:52:00,
2013-07-14 04:57:00,67.2,65.1,30.02,ENE,60,13.0,16.0,93,0.00,,,0.00,Wunderground v.1.15,2013-07-14 09:57:00,
2013-07-14 05:02:00,67.2,65.4,30.02,ENE,67,12.0,14.0,94,0.00,,,0.00,Wunderground v.1.15,2013-07-14 10:02:00,
2013-07-14 05:07:00,67.2,65.1,30.02,ENE,62,12.0,15.0,93,0.00,,,0.00,Wunderground v.1.15,2013-07-14 10:07:00,
2013-07-14 05:12:00,67.2,65.4,30.03,East,82,3.0,14.0,94,0.00,,,0.00,Wunderground v.1.15,2013-07-14 10:12:00,
2013-07-14 05:17:00,67.2,65.4,30.02,ENE,78,10.0,14.0,94,0.00,,,0.00,Wunderground v.1.15,2013-07-14 10:17:00,
2013-07-14 05:22:00,67.3,65.5,30.03,ENE,67,12.0,13.0,94,0.00,,,0.00,Wunderground v.1.15,2013-07-14 10:22:00,
2013-07-14 05:27:00,67.3,65.5,30.03,West,279,10.0,13.0,94,0.00,,,0.00,Wunderground v.1.15,2013-07-14 10:27:00,
2013-07-14 05:32:00,67.4,65.6,30.03,ENE,76,7.0,10.0,94,0.00,,,0.00,Wunderground v.1.15,2013-07-14 10:32:00,
2013-07-14 05:37:00,67.4,65.6,30.03,ENE,71,7.0,10.0,94,0.00,,,0.00,Wunderground v.1.15,2013-07-14 10:37:00,
2013-07-14 05:42:00,67.5,65.7,30.03,ENE,73,10.0,11.0,94,0.00,,,0.00,Wunderground v.1.15,2013-07-14 10:42:00,
2013-07-14 05:47:00,67.5,65.7,30.03,ENE,72,10.0,11.0,94,0.00,,,0.00,Wunderground v.1.15,2013-07-14 10:47:00,
2013-07-14 05:52:00,67.6,65.8,30.04,West,279,12.0,12.0,94,0.00,,,0.00,Wunderground v.1.15,2013-07-14 10:52:00,
2013-07-14 05:57:00,67.7,65.9,30.04,ENE,63,12.0,12.0,94,0.00,,,0.00,Wunderground v.1.15,2013-07-14 10:57:00,
2013-07-14 06:02:00,67.7,65.9,30.04,ENE,67,11.0,12.0,94,0.00,,,0.00,Wunderground v.1.15,2013-07-14 11:02:00,
2013-07-14 06:07:00,67.8,66.0,30.04,ENE,66,12.0,12.0,94,0.00,,,0.00,Wunderground v.1.15,2013-07-14 11:07:00,
2013-07-14 06:12:00,67.9,66.1,30.04,ENE,57,13.0,14.0,94,0.00,,,0.00,Wunderground v.1.15,2013-07-14 11:12:00,
2013-07-14 06:17:00,68.0,66.2,30.04,ENE,58,13.0,14.0,94,0.00,,,0.00,Wunderground v.1.15,2013-07-14 11:17:00,
2013-07-14 06:22:00,68.2,66.4,30.04,ENE,59,12.0,13.0,94,0.00,,,0.00,Wunderground v.1.15,2013-07-14 11:22:00,
2013-07-14 06:27:00,68.4,66.6,30.05,ENE,60,13.0,14.0,94,0.00,,,0.00,Wunderground v.1.15,2013-07-14 11:27:00,
2013-07-14 06:32:00,68.5,66.7,30.05,ENE,58,13.0,14.0,94,0.00,,,0.00,Wunderground v.1.15,2013-07-14 11:32:00,
2013-07-14 06:37:00,68.8,67.0,30.05,ENE,59,10.0,14.0,94,0.00,,,0.00,Wunderground v.1.15,2013-07-14 11:37:00,
2013-07-14 06:42:00,69.0,67.2,30.05,ENE,59,13.0,14.0,94,0.00,,,0.00,Wunderground v.1.15,2013-07-14 11:42:00,
2013-07-14 06:47:00,69.2,67.4,30.05,NE,55,11.0,14.0,94,0.00,,,0.00,Wunderground v.1.15,2013-07-14 11:47:00,
2013-07-14 06:52:00,69.4,67.6,30.05,ENE,58,13.0,16.0,94,0.00,,,0.00,Wunderground v.1.15,2013-07-14 11:52:00,
2013-07-14 06:57:00,69.6,67.5,30.05,ENE,65,14.0,16.0,93,0.00,,,0.00,Wunderground v.1.15,2013-07-14 11:57:00,
2013-07-14 07:02:00,69.8,67.7,30.05,ENE,71,13.0,16.0,93,0.00,,,0.00,Wunderground v.1.15,2013-07-14 12:02:00,
2013-07-14 07:07:00,70.1,68.0,30.05,ENE,67,12.0,16.0,93,0.00,,,0.00,Wunderground v.1.15,2013-07-14 12:07:00,
2013-07-14 07:12:00,70.4,68.0,30.05,ENE,70,9.0,13.0,92,0.00,,,0.00,Wunderground v.1.15,2013-07-14 12:12:00,
2013-07-14 07:17:00,70.6,68.2,30.05,West,279,10.0,13.0,92,0.00,,,0.00,Wunderground v.1.15,2013-07-14 12:17:00,
2013-07-14 07:22:00,70.9,68.1,30.05,East,81,4.0,12.0,91,0.00,,,0.00,Wunderground v.1.15,2013-07-14 12:22:00,
2013-07-14 07:27:00,71.2,68.4,30.06,ENE,61,10.0,12.0,91,0.00,,,0.00,Wunderground v.1.15,2013-07-14 12:27:00,
2013-07-14 07:32:00,71.5,68.7,30.05,West,279,10.0,12.0,91,0.00,,,0.00,Wunderground v.1.15,2013-07-14 12:32:00,
2013-07-14 07:37:00,71.8,69.0,30.06,ENE,65,11.0,14.0,91,0.00,,,0.00,Wunderground v.1.15,2013-07-14 12:37:00,
2013-07-14 07:42:00,72.1,69.0,30.06,ENE,61,10.0,12.0,90,0.00,,,0.00,Wunderground v.1.15,2013-07-14 12:42:00,
2013-07-14 07:47:00,72.4,69.3,30.06,West,279,10.0,13.0,90,0.00,,,0.00,Wunderground v.1.15,2013-07-14 12:47:00,
2013-07-14 07:52:00,72.7,69.3,30.06,NE,55,7.0,11.0,89,0.00,,,0.00,Wunderground v.1.15,2013-07-14 12:52:00,
2013-07-14 07:57:00,73.0,69.6,30.07,ENE,61,12.0,12.0,89,0.00,,,0.00,Wunderground v.1.15,2013-07-14 12:57:00,
2013-07-14 08:02:00,73.3,69.9,30.07,ENE,58,11.0,12.0,89,0.00,,,0.00,Wunderground v.1.15,2013-07-14 13:02:00,
2013-07-14 08:07:00,73.5,69.7,30.07,ENE,63,9.0,13.0,88,0.00,,,0.00,Wunderground v.1.15,2013-07-14 13:07:00,
2013-07-14 08:12:00,73.7,69.9,30.08,ENE,63,8.0,13.0,88,0.00,,,0.00,Wunderground v.1.15,2013-07-14 13:12:00,
2013-07-14 08:17:00,73.9,70.1,30.07,ENE,67,6.0,13.0,88,0.00,,,0.00,Wunderground v.1.15,2013-07-14 13:17:00,
2013-07-14 08:22:00,74.2,70.4,30.07,West,279,2.0,8.0,88,0.00,,,0.00,Wunderground v.1.15,2013-07-14 13:22:00,
2013-07-14 08:27:00,74.6,70.8,30.08,ENE,75,10.0,11.0,88,0.00,,,0.00,Wunderground v.1.15,2013-07-14 13:27:00,
2013-07-14 08:32:00,75.1,71.0,30.08,ENE,65,6.0,10.0,87,0.00,,,0.00,Wunderground v.1.15,2013-07-14 13:32:00,
2013-07-14 08:37:00,75.6,70.8,30.08,West,279,6.0,12.0,85,0.00,,,0.00,Wunderground v.1.15,2013-07-14 13:37:00,
2013-07-14 08:42:00,76.0,71.2,30.08,West,279,11.0,13.0,85,0.00,,,0.00,Wunderground v.1.15,2013-07-14 13:42:00,
2013-07-14 08:47:00,76.5,71.3,30.07,ENE,67,9.0,14.0,84,0.00,,,0.00,Wunderground v.1.15,2013-07-14 13:47:00,
2013-07-14 08:52:00,76.8,71.6,30.08,West,279,6.0,10.0,84,0.00,,,0.00,Wunderground v.1.15,2013-07-14 13:52:00,
2013-07-14 08:57:00,77.1,71.2,30.08,ENE,62,12.0,13.0,82,0.00,,,0.00,Wunderground v.1.15,2013-07-14 13:57:00,
2013-07-14 09:02:00,77.3,71.4,30.08,ENE,61,12.0,15.0,82,0.00,,,0.00,Wunderground v.1.15,2013-07-14 14:02:00,
2013-07-14 09:07:00,77.5,71.6,30.08,ENE,61,10.0,15.0,82,0.00,,,0.00,Wunderground v.1.15,2013-07-14 14:07:00,
2013-07-14 09:12:00,77.9,72.0,30.08,ENE,78,4.0,11.0,82,0.00,,,0.00,Wunderground v.1.15,2013-07-14 14:12:00,
2013-07-14 09:17:00,78.4,71.7,30.08,West,279,1.0,13.0,80,0.00,,,0.00,Wunderground v.1.15,2013-07-14 14:17:00,
2013-07-14 09:22:00,78.8,71.7,30.08,ENE,57,11.0,12.0,79,0.00,,,0.00,Wunderground v.1.15,2013-07-14 14:22:00,
2013-07-14 09:27:00,79.2,72.9,30.08,ENE,77,14.0,14.0,81,0.00,,,0.00,Wunderground v.1.15,2013-07-14 14:27:00,
2013-07-14 09:32:00,79.7,72.6,30.08,East,82,2.0,11.0,79,0.00,,,0.00,Wunderground v.1.15,2013-07-14 14:32:00,
2013-07-14 09:37:00,80.3,72.4,30.08,East,82,4.0,11.0,77,0.00,,,0.00,Wunderground v.1.15,2013-07-14 14:37:00,
2013-07-14 09:42:00,80.6,72.7,30.08,ENE,72,7.0,9.0,77,0.00,,,0.00,Wunderground v.1.15,2013-07-14 14:42:00,
2013-07-14 09:47:00,81.1,72.8,30.08,ENE,66,12.0,12.0,76,0.00,,,0.00,Wunderground v.1.15,2013-07-14 14:47:00,
2013-07-14 09:52:00,81.6,73.3,30.09,ENE,77,9.0,10.0,76,0.00,,,0.00,Wunderground v.1.15,2013-07-14 14:52:00,
2013-07-14 09:57:00,81.8,72.7,30.09,ESE,111,5.0,11.0,74,0.00,,,0.00,Wunderground v.1.15,2013-07-14 14:57:00,
2013-07-14 10:02:00,81.8,73.1,30.09,East,99,6.0,11.0,75,0.00,,,0.00,Wunderground v.1.15,2013-07-14 15:02:00,
2013-07-14 10:07:00,81.7,73.0,30.09,ESE,115,10.0,11.0,75,0.00,,,0.00,Wunderground v.1.15,2013-07-14 15:07:00,
2013-07-14 10:12:00,81.7,73.0,30.09,ENE,74,10.0,12.0,75,0.00,,,0.00,Wunderground v.1.15,2013-07-14 15:12:00,
2013-07-14 10:17:00,81.6,72.9,30.09,ENE,78,6.0,12.0,75,0.00,,,0.00,Wunderground v.1.15,2013-07-14 15:17:00,
2013-07-14 10:22:00,81.5,72.8,30.09,East,83,6.0,15.0,75,0.00,,,0.00,Wunderground v.1.15,2013-07-14 15:22:00,
2013-07-14 10:27:00,81.5,73.2,30.09,ESE,109,6.0,15.0,76,0.00,,,0.00,Wunderground v.1.15,2013-07-14 15:27:00,
2013-07-14 10:32:00,81.8,73.1,30.09,ESE,110,6.0,8.0,75,0.00,,,0.00,Wunderground v.1.15,2013-07-14 15:32:00,
2013-07-14 10:37:00,82.2,74.3,30.09,East,97,9.0,9.0,77,0.00,,,0.00,Wunderground v.1.15,2013-07-14 15:37:00,
2013-07-14 10:42:00,82.6,73.5,30.09,East,80,6.0,10.0,74,0.00,,,0.00,Wunderground v.1.15,2013-07-14 15:42:00,
2013-07-14 10:47:00,82.7,73.6,30.09,ESE,109,6.0,11.0,74,0.00,,,0.00,Wunderground v.1.15,2013-07-14 15:47:00,
2013-07-14 10:52:00,82.9,73.4,30.09,East,88,4.0,13.0,73,0.00,,,0.00,Wunderground v.1.15,2013-07-14 15:52:00,
2013-07-14 10:57:00,83.4,72.6,30.09,East,101,9.0,17.0,70,0.00,,,0.00,Wunderground v.1.15,2013-07-14 15:57:00,
2013-07-14 11:02:00,83.7,72.9,30.09,ESE,113,11.0,14.0,70,0.00,,,0.00,Wunderground v.1.15,2013-07-14 16:02:00,
2013-07-14 11:07:00,84.0,73.6,30.09,ESE,103,5.0,15.0,71,0.00,,,0.00,Wunderground v.1.15,2013-07-14 16:07:00,
2013-07-14 11:12:00,84.8,73.9,30.09,East,89,4.0,11.0,70,0.00,,,0.00,Wunderground v.1.15,2013-07-14 16:12:00,
2013-07-14 11:17:00,86.0,74.2,30.08,ESE,114,6.0,15.0,68,0.00,,,0.00,Wunderground v.1.15,2013-07-14 16:17:00,
2013-07-14 11:22:00,86.9,73.7,30.08,West,279,4.0,11.0,65,0.00,,,0.00,Wunderground v.1.15,2013-07-14 16:22:00,
2013-07-14 11:27:00,87.2,74.0,30.09,East,101,4.0,12.0,65,0.00,,,0.00,Wunderground v.1.15,2013-07-14 16:27:00,
2013-07-14 11:32:00,87.3,73.6,30.09,West,279,11.0,14.0,64,0.00,,,0.00,Wunderground v.1.15,2013-07-14 16:32:00,
2013-07-14 11:37:00,87.4,73.7,30.08,ESE,112,11.0,14.0,64,0.00,,,0.00,Wunderground v.1.15,2013-07-14 16:37:00,
2013-07-14 11:42:00,87.6,73.9,30.08,West,279,3.0,11.0,64,0.00,,,0.00,Wunderground v.1.15,2013-07-14 16:42:00,
2013-07-14 11:48:00,87.7,73.5,30.08,ESE,119,12.0,13.0,63,0.00,,,0.00,Wunderground v.1.15,2013-07-14 16:48:00,
2013-07-14 11:53:00,88.2,73.5,30.08,ESE,113,15.0,18.0,62,0.00,,,0.00,Wunderground v.1.15,2013-07-14 16:53:00,
2013-07-14 11:58:00,88.1,73.0,30.08,ESE,103,4.0,18.0,61,0.00,,,0.00,Wunderground v.1.15,2013-07-14 16:58:00,
2013-07-14 12:03:00,88.4,73.7,30.08,East,88,2.0,15.0,62,0.00,,,0.00,Wunderground v.1.15,2013-07-14 17:03:00,
2013-07-14 12:08:00,88.5,73.3,30.09,West,279,2.0,15.0,61,0.00,,,0.00,Wunderground v.1.15,2013-07-14 17:08:00,
2013-07-14 12:13:00,88.3,74.1,30.08,East,90,3.0,12.0,63,0.00,,,0.00,Wunderground v.1.15,2013-07-14 17:13:00,
2013-07-14 12:18:00,88.5,73.3,30.08,East,81,4.0,12.0,61,0.00,,,0.00,Wunderground v.1.15,2013-07-14 17:18:00,
2013-07-14 12:23:00,88.6,73.4,30.08,East,84,6.0,13.0,61,0.00,,,0.00,Wunderground v.1.15,2013-07-14 17:23:00,
2013-07-14 12:28:00,89.3,74.1,30.08,East,90,2.0,13.0,61,0.00,,,0.00,Wunderground v.1.15,2013-07-14 17:28:00,
2013-07-14 12:33:00,89.9,73.7,30.08,East,89,3.0,11.0,59,0.00,,,0.00,Wunderground v.1.15,2013-07-14 17:33:00,
2013-07-14 12:38:00,90.0,74.7,30.08,ENE,69,5.0,18.0,61,0.00,,,0.00,Wunderground v.1.15,2013-07-14 17:38:00,
2013-07-14 12:43:00,90.2,73.9,30.08,East,80,7.0,14.0,59,0.00,,,0.00,Wunderground v.1.15,2013-07-14 17:43:00,
2013-07-14 12:48:00,89.9,73.1,30.08,ESE,109,11.0,14.0,58,0.00,,,0.00,Wunderground v.1.15,2013-07-14 17:48:00,
2013-07-14 12:53:00,89.5,73.8,30.08,ESE,109,6.0,14.0,60,0.00,,,0.00,Wunderground v.1.15,2013-07-14 17:53:00,
2013-07-14 12:57:00,89.1,73.4,30.08,West,279,5.0,14.0,60,0.00,,,0.00,Wunderground v.1.15,2013-07-14 17:57:00,
2013-07-14 13:03:00,89.3,73.1,30.08,East,86,1.0,10.0,59,0.00,,,0.00,Wunderground v.1.15,2013-07-14 18:03:00,
2013-07-14 13:08:00,89.6,73.9,30.08,ENE,66,12.0,12.0,60,0.00,,,0.00,Wunderground v.1.15,2013-07-14 18:08:00,
2013-07-14 13:13:00,89.4,73.7,30.07,East,90,3.0,8.0,60,0.00,,,0.00,Wunderground v.1.15,2013-07-14 18:13:00,
2013-07-14 13:18:00,89.6,72.9,30.07,NE,50,8.0,11.0,58,0.00,,,0.00,Wunderground v.1.15,2013-07-14 18:18:00,
2013-07-14 13:23:00,89.6,72.3,30.07,East,80,6.0,13.0,57,0.00,,,0.00,Wunderground v.1.15,2013-07-14 18:23:00,
2013-07-14 13:28:00,89.5,72.8,30.08,ENE,67,9.0,15.0,58,0.00,,,0.00,Wunderground v.1.15,2013-07-14 18:28:00,
2013-07-14 13:33:00,89.7,73.0,30.08,ENE,74,3.0,13.0,58,0.00,,,0.00,Wunderground v.1.15,2013-07-14 18:33:00,
2013-07-14 13:38:00,90.0,73.7,30.07,ENE,64,13.0,13.0,59,0.00,,,0.00,Wunderground v.1.15,2013-07-14 18:38:00,
2013-07-14 13:43:00,90.1,72.3,30.08,East,83,3.0,10.0,56,0.00,,,0.00,Wunderground v.1.15,2013-07-14 18:43:00,
2013-07-14 13:48:00,90.1,72.3,30.07,West,279,6.0,10.0,56,0.00,,,0.00,Wunderground v.1.15,2013-07-14 18:48:00,
2013-07-14 13:53:00,90.4,73.6,30.07,East,91,3.0,11.0,58,0.00,,,0.00,Wunderground v.1.15,2013-07-14 18:53:00,
2013-07-14 13:58:00,90.4,72.0,30.07,ENE,61,6.0,12.0,55,0.00,,,0.00,Wunderground v.1.15,2013-07-14 18:58:00,
2013-07-14 14:03:00,90.2,73.4,30.07,ENE,72,4.0,8.0,58,0.00,,,0.00,Wunderground v.1.15,2013-07-14 19:03:00,
2013-07-14 14:08:00,89.9,74.6,30.07,NE,51,10.0,12.0,61,0.00,,,0.00,Wunderground v.1.15,2013-07-14 19:08:00,
2013-07-14 14:13:00,89.2,73.0,30.06,ENE,69,9.0,12.0,59,0.00,,,0.00,Wunderground v.1.15,2013-07-14 19:13:00,
2013-07-14 14:18:00,89.0,73.3,30.06,West,279,14.0,16.0,60,0.00,,,0.00,Wunderground v.1.15,2013-07-14 19:18:00,
2013-07-14 14:23:00,89.4,71.6,30.06,ENE,67,10.0,19.0,56,0.00,,,0.00,Wunderground v.1.15,2013-07-14 19:23:00,
2013-07-14 14:28:00,89.3,72.1,30.05,ENE,70,12.0,19.0,57,0.00,,,0.00,Wunderground v.1.15,2013-07-14 19:28:00,
2013-07-14 14:33:00,89.5,71.2,30.06,ENE,73,13.0,15.0,55,0.00,,,0.00,Wunderground v.1.15,2013-07-14 19:33:00,
2013-07-14 14:38:00,89.5,72.3,30.06,ENE,77,8.0,18.0,57,0.00,,,0.00,Wunderground v.1.15,2013-07-14 19:38:00,
2013-07-14 14:43:00,89.2,72.5,30.06,NE,51,17.0,19.0,58,0.00,,,0.00,Wunderground v.1.15,2013-07-14 19:43:00,
2013-07-14 14:48:00,88.4,72.7,30.06,NE,51,15.0,22.0,60,0.00,,,0.00,Wunderground v.1.15,2013-07-14 19:48:00,
2013-07-14 14:53:00,87.7,72.6,30.05,ENE,58,14.0,16.0,61,0.00,,,0.00,Wunderground v.1.15,2013-07-14 19:53:00,
2013-07-14 14:58:00,87.3,72.2,30.06,NE,45,12.0,18.0,61,0.00,,,0.00,Wunderground v.1.15,2013-07-14 19:58:00,
2013-07-14 15:03:00,87.0,72.9,30.06,ENE,62,18.0,24.0,63,0.00,,,0.00,Wunderground v.1.15,2013-07-14 20:03:00,
2013-07-14 15:08:00,86.2,72.6,30.06,ENE,59,19.0,27.0,64,0.00,,,0.00,Wunderground v.1.15,2013-07-14 20:08:00,
2013-07-14 15:13:00,85.2,73.9,30.06,NE,47,13.0,19.0,69,0.00,,,0.00,Wunderground v.1.15,2013-07-14 20:13:00,
2013-07-14 15:18:00,84.0,74.0,30.05,NE,48,12.0,19.0,72,0.00,,,0.00,Wunderground v.1.15,2013-07-14 20:18:00,
2013-07-14 15:23:00,83.2,73.2,30.05,NE,53,11.0,14.0,72,0.00,,,0.00,Wunderground v.1.15,2013-07-14 20:23:00,
2013-07-14 15:28:00,83.0,73.9,30.05,ENE,59,15.0,16.0,74,0.00,,,0.00,Wunderground v.1.15,2013-07-14 20:28:00,
2013-07-14 15:33:00,83.3,73.3,30.05,ENE,66,15.0,16.0,72,0.00,,,0.00,Wunderground v.1.15,2013-07-14 20:33:00,
2013-07-14 15:38:00,83.8,73.4,30.05,West,279,14.0,18.0,71,0.00,,,0.00,Wunderground v.1.15,2013-07-14 20:38:00,
2013-07-14 15:43:00,84.4,74.4,30.05,NE,45,11.0,16.0,72,0.00,,,0.00,Wunderground v.1.15,2013-07-14 20:43:00,
2013-07-14 15:48:00,85.2,74.3,30.05,NE,49,8.0,16.0,70,0.00,,,0.00,Wunderground v.1.15,2013-07-14 20:48:00,
2013-07-14 15:53:00,85.9,73.7,30.05,ENE,65,14.0,18.0,67,0.00,,,0.00,Wunderground v.1.15,2013-07-14 20:53:00,
2013-07-14 15:58:00,86.4,74.1,30.05,NE,40,9.0,18.0,67,0.00,,,0.00,Wunderground v.1.15,2013-07-14 20:58:00,
2013-07-14 16:03:00,86.6,73.9,30.04,West,279,12.0,16.0,66,0.00,,,0.00,Wunderground v.1.15,2013-07-14 21:03:00,
2013-07-14 16:08:00,87.0,74.3,30.05,ENE,69,12.0,17.0,66,0.00,,,0.00,Wunderground v.1.15,2013-07-14 21:08:00,
2013-07-14 16:13:00,87.4,73.3,30.04,ENE,64,18.0,21.0,63,0.00,,,0.00,Wunderground v.1.15,2013-07-14 21:13:00,
2013-07-14 16:18:00,87.7,74.0,30.04,NE,53,10.0,21.0,64,0.00,,,0.00,Wunderground v.1.15,2013-07-14 21:18:00,
2013-07-14 16:23:00,88.0,74.8,30.04,West,279,4.0,17.0,65,0.00,,,0.00,Wunderground v.1.15,2013-07-14 21:23:00,
2013-07-14 16:28:00,88.6,73.4,30.04,NE,49,10.0,18.0,61,0.00,,,0.00,Wunderground v.1.15,2013-07-14 21:28:00,
2013-07-14 16:33:00,88.8,73.1,30.04,ENE,74,19.0,23.0,60,0.00,,,0.00,Wunderground v.1.15,2013-07-14 21:33:00,
2013-07-14 16:38:00,88.5,73.8,30.04,ENE,63,18.0,23.0,62,0.00,,,0.00,Wunderground v.1.15,2013-07-14 21:38:00,
2013-07-14 16:43:00,88.9,73.2,30.04,West,279,16.0,20.0,60,0.00,,,0.00,Wunderground v.1.15,2013-07-14 21:43:00,
2013-07-14 16:48:00,88.6,72.4,30.05,ENE,78,7.0,25.0,59,0.00,,,0.00,Wunderground v.1.15,2013-07-14 21:48:00,
2013-07-14 16:53:00,87.6,74.4,30.05,ENE,63,17.0,24.0,65,0.00,,,0.00,Wunderground v.1.15,2013-07-14 21:53:00,
2013-07-14 16:58:00,86.3,72.7,30.05,ENE,74,10.0,24.0,64,0.00,,,0.00,Wunderground v.1.15,2013-07-14 21:58:00,
2013-07-14 17:03:00,85.3,72.6,30.05,ENE,69,12.0,17.0,66,0.00,,,0.00,Wunderground v.1.15,2013-07-14 22:03:00,
2013-07-14 17:08:00,84.7,73.4,30.05,ENE,70,11.0,17.0,69,0.00,,,0.00,Wunderground v.1.15,2013-07-14 22:08:00,
2013-07-14 17:13:00,84.9,73.6,30.05,ENE,78,4.0,12.0,69,0.00,,,0.00,Wunderground v.1.15,2013-07-14 22:13:00,
2013-07-14 17:18:00,85.8,73.6,30.04,ENE,76,0.0,12.0,67,0.00,,,0.00,Wunderground v.1.15,2013-07-14 22:18:00,
2013-07-14 17:23:00,86.7,73.5,30.04,ENE,78,3.0,6.0,65,0.00,,,0.00,Wunderground v.1.15,2013-07-14 22:23:00,
2013-07-14 17:28:00,87.2,74.5,30.05,West,279,1.0,6.0,66,0.00,,,0.00,Wunderground v.1.15,2013-07-14 22:28:00,
2013-07-14 17:33:00,88.1,73.4,30.04,East,98,3.0,7.0,62,0.00,,,0.00,Wunderground v.1.15,2013-07-14 22:33:00,
2013-07-14 17:38:00,88.7,74.0,30.04,SE,146,5.0,7.0,62,0.00,,,0.00,Wunderground v.1.15,2013-07-14 22:38:00,
2013-07-14 17:43:00,89.2,74.5,30.05,South,184,7.0,7.0,62,0.00,,,0.00,Wunderground v.1.15,2013-07-14 22:43:00,
2013-07-14 17:48:00,87.9,74.7,30.05,SSW,192,10.0,13.0,65,0.00,,,0.00,Wunderground v.1.15,2013-07-14 22:48:00,
2013-07-14 17:53:00,85.9,74.1,30.05,West,279,6.0,10.0,68,0.00,,,0.00,Wunderground v.1.15,2013-07-14 22:53:00,
2013-07-14 17:58:00,84.5,73.6,30.05,SSW,197,13.0,13.0,70,0.00,,,0.00,Wunderground v.1.15,2013-07-14 22:58:00,
2013-07-14 18:03:00,83.0,73.0,30.05,SSW,194,12.0,13.0,72,0.00,,,0.00,Wunderground v.1.15,2013-07-14 23:03:00,
2013-07-14 18:08:00,81.8,72.7,30.05,SSW,196,8.0,13.0,74,0.00,,,0.00,Wunderground v.1.15,2013-07-14 23:08:00,
2013-07-14 18:13:00,81.1,72.8,30.06,West,279,10.0,15.0,76,0.00,,,0.00,Wunderground v.1.15,2013-07-14 23:13:00,
2013-07-14 18:18:00,80.6,73.1,30.05,SSW,204,6.0,15.0,78,0.00,,,0.00,Wunderground v.1.15,2013-07-14 23:18:00,
2013-07-14 18:23:00,80.3,73.2,30.05,West,279,6.0,9.0,79,0.00,,,0.00,Wunderground v.1.15,2013-07-14 23:23:00,
2013-07-14 18:28:00,80.1,73.0,30.05,SW,215,9.0,10.0,79,0.00,,,0.00,Wunderground v.1.15,2013-07-14 23:28:00,
2013-07-14 18:33:00,79.8,73.1,30.05,SSW,199,10.0,11.0,80,0.00,,,0.00,Wunderground v.1.15,2013-07-14 23:33:00,
2013-07-14 18:38:00,79.3,73.0,30.05,West,279,6.0,11.0,81,0.00,,,0.00,Wunderground v.1.15,2013-07-14 23:38:00,
2013-07-14 18:43:00,79.0,72.7,30.06,South,191,1.0,9.0,81,0.00,,,0.00,Wunderground v.1.15,2013-07-14 23:43:00,
2013-07-14 18:48:00,78.7,74.2,30.07,ESE,116,5.0,10.0,86,1.23,,,0.10,Wunderground v.1.15,2013-07-14 23:48:00,
2013-07-14 18:53:00,77.8,73.3,30.06,West,279,13.0,15.0,86,0.57,,,0.21,Wunderground v.1.15,2013-07-14 23:53:00,
2013-07-14 18:58:00,76.7,72.9,30.06,SSE,150,8.0,15.0,88,0.20,,,0.22,Wunderground v.1.15,2013-07-14 23:58:00,
2013-07-14 19:03:00,76.0,72.5,30.06,South,188,7.0,11.0,89,0.08,,,0.22,Wunderground v.1.15,2013-07-15 00:03:00,
2013-07-14 19:08:00,75.6,72.8,30.06,South,186,3.0,11.0,91,0.06,,,0.23,Wunderground v.1.15,2013-07-15 00:08:00,
2013-07-14 19:13:00,75.4,72.9,30.06,South,187,2.0,5.0,92,0.06,,,0.23,Wunderground v.1.15,2013-07-15 00:13:00,
2013-07-14 19:18:00,75.2,72.7,30.06,South,188,2.0,5.0,92,0.05,,,0.23,Wunderground v.1.15,2013-07-15 00:18:00,
2013-07-14 19:23:00,75.1,72.9,30.06,West,279,4.0,5.0,93,0.00,,,0.23,Wunderground v.1.15,2013-07-15 00:23:00,
2013-07-14 19:28:00,74.9,72.7,30.06,West,274,4.0,5.0,93,0.00,,,0.23,Wunderground v.1.15,2013-07-15 00:28:00,
2013-07-14 19:33:00,74.9,72.7,30.06,West,274,3.0,5.0,93,0.00,,,0.23,Wunderground v.1.15,2013-07-15 00:33:00,
2013-07-14 19:38:00,74.9,72.7,30.06,West,279,2.0,5.0,93,0.00,,,0.23,Wunderground v.1.15,2013-07-15 00:38:00,
2013-07-14 19:43:00,74.8,72.6,30.07,West,279,1.0,3.0,93,0.00,,,0.23,Wunderground v.1.15,2013-07-15 00:43:00,
2013-07-14 19:48:00,74.8,72.6,30.06,West,274,2.0,3.0,93,0.00,,,0.23,Wunderground v.1.15,2013-07-15 00:48:00,
2013-07-14 19:53:00,74.8,73.0,30.07,West,274,4.0,4.0,94,0.00,,,0.23,Wunderground v.1.15,2013-07-15 00:53:00,
2013-07-14 19:58:00,74.7,72.9,30.07,NW,307,4.0,5.0,94,0.00,,,0.23,Wunderground v.1.15,2013-07-15 00:58:00,
2013-07-14 20:03:00,74.6,72.8,30.07,NW,323,5.0,8.0,94,0.00,,,0.23,Wunderground v.1.15,2013-07-15 01:03:00,
2013-07-14 20:08:00,74.6,72.8,30.07,NW,323,5.0,8.0,94,0.00,,,0.23,Wunderground v.1.15,2013-07-15 01:08:00,
2013-07-14 20:13:00,74.6,72.8,30.07,NW,319,5.0,7.0,94,0.00,,,0.23,Wunderground v.1.15,2013-07-15 01:13:00,
2013-07-14 20:18:00,74.6,72.8,30.07,NW,321,7.0,8.0,94,0.00,,,0.23,Wunderground v.1.15,2013-07-15 01:18:00,
2013-07-14 20:23:00,74.6,72.8,30.08,NW,320,7.0,9.0,94,0.00,,,0.23,Wunderground v.1.15,2013-07-15 01:23:00,
2013-07-14 20:28:00,74.5,72.7,30.08,NW,315,6.0,9.0,94,0.00,,,0.23,Wunderground v.1.15,2013-07-15 01:28:00,
2013-07-14 20:33:00,74.5,72.7,30.08,NW,320,7.0,9.0,94,0.00,,,0.23,Wunderground v.1.15,2013-07-15 01:33:00,
2013-07-14 20:38:00,74.4,72.6,30.08,NW,319,7.0,9.0,94,0.00,,,0.23,Wunderground v.1.15,2013-07-15 01:38:00,
2013-07-14 20:43:00,74.4,72.6,30.08,NW,317,6.0,8.0,94,0.00,,,0.23,Wunderground v.1.15,2013-07-15 01:43:00,
2013-07-14 20:48:00,74.3,72.5,30.09,NW,318,7.0,8.0,94,0.00,,,0.23,Wunderground v.1.15,2013-07-15 01:48:00,
2013-07-14 20:53:00,74.3,72.8,30.08,NW,319,6.0,7.0,95,0.00,,,0.23,Wunderground v.1.15,2013-07-15 01:53:00,
2013-07-14 20:58:00,74.2,72.7,30.09,NW,318,7.0,7.0,95,0.00,,,0.23,Wunderground v.1.15,2013-07-15 01:58:00,
2013-07-14 21:03:00,74.2,72.4,30.08,NW,317,4.0,7.0,94,0.00,,,0.23,Wunderground v.1.15,2013-07-15 02:03:00,
2013-07-14 21:08:00,74.2,72.4,30.09,NW,317,5.0,7.0,94,0.00,,,0.23,Wunderground v.1.15,2013-07-15 02:08:00,
2013-07-14 21:13:00,74.1,72.6,30.09,NW,317,5.0,5.0,95,0.00,,,0.23,Wunderground v.1.15,2013-07-15 02:13:00,
2013-07-14 21:18:00,74.0,72.5,30.09,NW,318,4.0,5.0,95,0.00,,,0.23,Wunderground v.1.15,2013-07-15 02:18:00,
2013-07-14 21:23:00,74.0,72.5,30.09,NW,317,3.0,5.0,95,0.00,,,0.23,Wunderground v.1.15,2013-07-15 02:23:00,
2013-07-14 21:28:00,74.0,72.5,30.10,NW,318,3.0,5.0,95,0.00,,,0.23,Wunderground v.1.15,2013-07-15 02:28:00,
2013-07-14 21:33:00,74.0,72.5,30.09,NW,317,2.0,4.0,95,0.00,,,0.23,Wunderground v.1.15,2013-07-15 02:33:00,
2013-07-14 21:38:00,73.9,72.4,30.09,NW,317,3.0,4.0,95,0.00,,,0.23,Wunderground v.1.15,2013-07-15 02:38:00,
2013-07-14 21:43:00,73.9,72.4,30.10,NW,317,3.0,4.0,95,0.00,,,0.23,Wunderground v.1.15,2013-07-15 02:43:00,
2013-07-14 21:48:00,73.8,72.3,30.10,NW,318,4.0,5.0,95,0.00,,,0.23,Wunderground v.1.15,2013-07-15 02:48:00,
2013-07-14 21:53:00,73.7,72.2,30.10,NW,317,4.0,5.0,95,0.00,,,0.23,Wunderground v.1.15,2013-07-15 02:53:00,
2013-07-14 21:58:00,73.6,72.1,30.10,NW,317,5.0,5.0,95,0.00,,,0.23,Wunderground v.1.15,2013-07-15 02:58:00,
2013-07-14 22:03:00,73.5,72.0,30.10,NNW,328,5.0,6.0,95,0.00,,,0.23,Wunderground v.1.15,2013-07-15 03:03:00,
2013-07-14 22:08:00,73.5,72.0,30.10,NNW,329,5.0,6.0,95,0.00,,,0.23,Wunderground v.1.15,2013-07-15 03:08:00,
2013-07-14 22:13:00,73.4,71.9,30.10,NNW,328,6.0,7.0,95,0.00,,,0.23,Wunderground v.1.15,2013-07-15 03:13:00,
2013-07-14 22:18:00,73.3,71.8,30.10,NNW,330,5.0,7.0,95,0.00,,,0.23,Wunderground v.1.15,2013-07-15 03:18:00,
2013-07-14 22:23:00,73.3,71.8,30.10,NNW,330,5.0,7.0,95,0.00,,,0.23,Wunderground v.1.15,2013-07-15 03:23:00,
2013-07-14 22:28:00,73.3,71.8,30.10,NNW,341,9.0,10.0,95,0.00,,,0.23,Wunderground v.1.15,2013-07-15 03:28:00,
2013-07-14 22:33:00,73.1,71.6,30.10,NNW,348,7.0,10.0,95,0.00,,,0.23,Wunderground v.1.15,2013-07-15 03:33:00,
2013-07-14 22:38:00,73.1,71.6,30.09,NNW,348,6.0,10.0,95,0.00,,,0.23,Wunderground v.1.15,2013-07-15 03:38:00,
2013-07-14 22:43:00,73.1,71.6,30.10,North,351,6.0,8.0,95,0.00,,,0.23,Wunderground v.1.15,2013-07-15 03:43:00,
2013-07-14 22:48:00,73.0,71.5,30.10,North,355,9.0,10.0,95,0.00,,,0.23,Wunderground v.1.15,2013-07-15 03:48:00,
2013-07-14 22:53:00,73.0,71.5,30.10,North,357,7.0,9.0,95,0.00,,,0.23,Wunderground v.1.15,2013-07-15 03:53:00,
2013-07-14 22:58:00,72.9,71.4,30.11,North,5,6.0,9.0,95,0.00,,,0.23,Wunderground v.1.15,2013-07-15 03:58:00,
2013-07-14 23:01:00,72.8,71.3,30.10,North,9,7.0,8.0,95,0.00,,,0.23,Wunderground v.1.15,2013-07-15 04:01:00,
2013-07-14 23:06:00,72.8,71.3,30.10,NNE,13,7.0,9.0,95,0.00,,,0.23,Wunderground v.1.15,2013-07-15 04:06:00,
2013-07-14 23:11:00,72.7,71.2,30.10,NNE,17,8.0,9.0,95,0.00,,,0.23,Wunderground v.1.15,2013-07-15 04:11:00,
2013-07-14 23:16:00,72.6,71.1,30.10,NNE,22,9.0,10.0,95,0.00,,,0.23,Wunderground v.1.15,2013-07-15 04:16:00,
2013-07-14 23:21:00,72.6,71.1,30.10,NNE,25,9.0,10.0,95,0.00,,,0.23,Wunderground v.1.15,2013-07-15 04:21:00,
2013-07-14 23:26:00,72.5,71.0,30.10,NNE,33,10.0,11.0,95,0.00,,,0.23,Wunderground v.1.15,2013-07-15 04:26:00,
2013-07-14 23:31:00,72.5,71.0,30.10,NE,37,11.0,11.0,95,0.00,,,0.23,Wunderground v.1.15,2013-07-15 04:31:00,
2013-07-14 23:36:00,72.6,71.1,30.10,NE,40,10.0,11.0,95,0.00,,,0.23,Wunderground v.1.15,2013-07-15 04:36:00,
2013-07-14 23:41:00,72.5,71.0,30.10,NE,46,10.0,11.0,95,0.00,,,0.23,Wunderground v.1.15,2013-07-15 04:41:00,
2013-07-14 23:46:00,72.6,71.1,30.10,NE,42,10.0,11.0,95,0.00,,,0.23,Wunderground v.1.15,2013-07-15 04:46:00,
2013-07-14 23:51:00,72.5,71.0,30.10,NE,48,12.0,12.0,95,0.00,,,0.23,Wunderground v.1.15,2013-07-15 04:51:00,
2013-07-14 23:56:00,72.4,70.9,30.10,NE,51,14.0,15.0,95,0.00,,,0.23,Wunderground v.1.15,2013-07-15 04:56:00,